Time,TemperatureF,DewpointF,PressureIn,WindDirection,WindDirectionDegrees,WindSpeedMPH,WindSpeedGustMPH,Humidity,HourlyPrecipIn,Conditions,Clouds,dailyrainin,SoftwareType,DateUTC
2013-02-18 00:00:00,26.1,10.9,30.21,ESE,122,1.0,7.0,52,0.00,,SKC,0.01,VWS V14.01,2013-02-18 05:00:00,
2013-02-18 00:01:00,26.0,10.8,30.20,ESE,118,1.0,7.0,52,0.00,,SKC,0.01,VWS V14.01,2013-02-18 05:01:00,
2013-02-18 00:06:00,26.0,10.8,30.20,SE,136,6.0,9.0,52,0.00,,SKC,0.00,VWS V14.01,2013-02-18 05:06:00,
2013-02-18 00:12:00,26.0,10.4,30.20,SE,127,2.0,9.0,51,0.00,,SKC,0.00,VWS V14.01,2013-02-18 05:12:00,
2013-02-18 00:17:00,26.0,10.4,30.20,SE,134,0.0,9.0,51,0.00,,SKC,0.00,VWS V14.01,2013-02-18 05:17:00,
2013-02-18 00:22:00,26.0,10.4,30.20,ESE,115,0.0,9.0,51,0.00,,SKC,0.00,VWS V14.01,2013-02-18 05:22:00,
2013-02-18 00:27:00,26.0,10.4,30.20,South,172,2.0,9.0,51,0.00,,SKC,0.00,VWS V14.01,2013-02-18 05:27:00,
2013-02-18 00:32:00,26.0,10.4,30.20,ESE,119,4.0,9.0,51,0.00,,SKC,0.00,VWS V14.01,2013-02-18 05:32:00,
2013-02-18 00:37:00,26.0,10.4,30.20,ESE,110,2.0,5.0,51,0.00,,SKC,0.00,VWS V14.01,2013-02-18 05:37:00,
2013-02-18 00:42:00,26.1,10.5,30.20,SE,128,0.0,11.0,51,0.00,,SKC,0.00,VWS V14.01,2013-02-18 05:42:00,
2013-02-18 00:47:00,26.1,10.5,30.20,SE,146,0.0,11.0,51,0.00,,SKC,0.00,VWS V14.01,2013-02-18 05:47:00,
2013-02-18 00:52:00,26.1,10.0,30.20,ESE,103,1.0,11.0,50,0.00,,SKC,0.00,VWS V14.01,2013-02-18 05:52:00,
2013-02-18 00:57:00,26.3,10.2,30.20,SSE,167,1.0,11.0,50,0.00,,SKC,0.00,VWS V14.01,2013-02-18 05:57:00,
2013-02-18 01:02:00,26.3,10.2,30.20,ESE,123,1.0,3.0,50,0.00,,SKC,0.00,VWS V14.01,2013-02-18 06:02:00,
2013-02-18 01:07:00,26.3,10.2,30.20,SE,125,4.0,5.0,50,0.00,,SKC,0.00,VWS V14.01,2013-02-18 06:07:00,
2013-02-18 01:12:00,26.3,10.2,30.20,SSE,160,2.0,5.0,50,0.00,,SKC,0.00,VWS V14.01,2013-02-18 06:12:00,
2013-02-18 01:18:00,26.4,10.3,30.20,SE,146,0.0,6.0,50,0.00,,SKC,0.00,VWS V14.01,2013-02-18 06:18:00,
2013-02-18 01:23:00,26.4,9.8,30.20,SE,141,2.0,6.0,49,0.00,,SKC,0.00,VWS V14.01,2013-02-18 06:23:00,
2013-02-18 01:28:00,26.6,10.0,30.20,ESE,120,2.0,9.0,49,0.00,,SKC,0.00,VWS V14.01,2013-02-18 06:28:00,
2013-02-18 01:33:00,26.7,10.1,30.19,ESE,113,6.0,8.0,49,0.00,,SKC,0.00,VWS V14.01,2013-02-18 06:33:00,
2013-02-18 01:38:00,26.7,10.1,30.19,SE,129,3.0,8.0,49,0.00,,SKC,0.00,VWS V14.01,2013-02-18 06:38:00,
2013-02-18 01:43:00,26.7,10.6,30.19,ESE,118,1.0,9.0,50,0.00,,SKC,0.00,VWS V14.01,2013-02-18 06:43:00,
2013-02-18 01:48:00,26.7,10.1,30.18,SSE,150,1.0,10.0,49,0.00,,SKC,0.00,VWS V14.01,2013-02-18 06:48:00,
2013-02-18 01:53:00,26.7,10.1,30.18,SE,124,3.0,10.0,49,0.00,,SKC,0.00,VWS V14.01,2013-02-18 06:53:00,
2013-02-18 01:58:00,26.7,10.6,30.18,SE,145,7.0,10.0,50,0.00,,SKC,0.00,VWS V14.01,2013-02-18 06:58:00,
2013-02-18 02:03:00,26.7,10.6,30.18,SE,128,5.0,7.0,50,0.00,,SKC,0.00,VWS V14.01,2013-02-18 07:03:00,
2013-02-18 02:08:00,26.9,10.8,30.18,SE,135,2.0,12.0,50,0.00,,SKC,0.00,VWS V14.01,2013-02-18 07:08:00,
2013-02-18 02:13:00,27.0,10.9,30.18,South,179,0.0,14.0,50,0.00,,SKC,0.00,VWS V14.01,2013-02-18 07:13:00,
2013-02-18 02:18:00,27.0,10.9,30.17,SE,140,1.0,14.0,50,0.00,,SKC,0.00,VWS V14.01,2013-02-18 07:18:00,
2013-02-18 02:23:00,27.0,11.3,30.17,SE,129,7.0,14.0,51,0.00,,SKC,0.00,VWS V14.01,2013-02-18 07:23:00,
2013-02-18 02:29:00,27.2,11.5,30.17,SE,127,11.0,14.0,51,0.00,,SKC,0.00,VWS V14.01,2013-02-18 07:29:00,
2013-02-18 02:34:00,27.2,11.5,30.16,SE,132,7.0,14.0,51,0.00,,SKC,0.00,VWS V14.01,2013-02-18 07:34:00,
2013-02-18 02:39:00,27.2,11.5,30.16,ESE,110,7.0,14.0,51,0.00,,SKC,0.00,VWS V14.01,2013-02-18 07:39:00,
2013-02-18 02:44:00,27.3,11.6,30.16,SE,127,4.0,14.0,51,0.00,,SKC,0.00,VWS V14.01,2013-02-18 07:44:00,
2013-02-18 02:49:00,27.3,11.6,30.16,SE,143,2.0,14.0,51,0.00,,SKC,0.00,VWS V14.01,2013-02-18 07:49:00,
2013-02-18 02:54:00,27.3,12.0,30.16,ESE,115,5.0,14.0,52,0.00,,SKC,0.00,VWS V14.01,2013-02-18 07:54:00,
2013-02-18 02:59:00,27.3,11.6,30.16,ESE,115,3.0,14.0,51,0.00,,SKC,0.00,VWS V14.01,2013-02-18 07:59:00,
2013-02-18 03:04:00,27.5,12.2,30.15,SSE,155,1.0,6.0,52,0.00,,SKC,0.00,VWS V14.01,2013-02-18 08:04:00,
2013-02-18 03:09:00,27.5,11.8,30.15,SE,132,4.0,10.0,51,0.00,,SKC,0.00,VWS V14.01,2013-02-18 08:09:00,
2013-02-18 03:14:00,27.6,11.9,30.15,East,97,2.0,11.0,51,0.00,,SKC,0.00,VWS V14.01,2013-02-18 08:14:00,
2013-02-18 03:19:00,27.6,11.9,30.15,ESE,121,4.0,11.0,51,0.00,,SKC,0.00,VWS V14.01,2013-02-18 08:19:00,
2013-02-18 03:24:00,27.9,12.1,30.15,ESE,111,5.0,11.0,51,0.00,,SKC,0.00,VWS V14.01,2013-02-18 08:24:00,
2013-02-18 03:29:00,27.9,12.1,30.15,ESE,113,5.0,11.0,51,0.00,,SKC,0.00,VWS V14.01,2013-02-18 08:29:00,
2013-02-18 03:34:00,27.9,12.6,30.14,East,88,4.0,9.0,52,0.00,,SKC,0.00,VWS V14.01,2013-02-18 08:34:00,
2013-02-18 03:39:00,27.8,12.5,30.14,SE,130,7.0,9.0,52,0.00,,SKC,0.00,VWS V14.01,2013-02-18 08:39:00,
2013-02-18 03:44:00,27.8,12.5,30.14,East,97,6.0,12.0,52,0.00,,SKC,0.00,VWS V14.01,2013-02-18 08:44:00,
2013-02-18 03:49:00,27.8,12.5,30.13,SE,133,5.0,12.0,52,0.00,,SKC,0.00,VWS V14.01,2013-02-18 08:49:00,
2013-02-18 03:54:00,27.9,12.6,30.13,SE,131,9.0,12.0,52,0.00,,SKC,0.00,VWS V14.01,2013-02-18 08:54:00,
2013-02-18 03:59:00,27.9,13.0,30.13,ESE,105,3.0,12.0,53,0.00,,SKC,0.00,VWS V14.01,2013-02-18 08:59:00,
2013-02-18 04:04:00,28.1,13.2,30.12,SE,139,5.0,5.0,53,0.00,,SKC,0.00,VWS V14.01,2013-02-18 09:04:00,
2013-02-18 04:09:00,28.2,13.3,30.12,South,179,2.0,10.0,53,0.00,,SKC,0.00,VWS V14.01,2013-02-18 09:09:00,
2013-02-18 04:15:00,28.4,13.0,30.12,ESE,113,4.0,10.0,52,0.00,,SKC,0.00,VWS V14.01,2013-02-18 09:15:00,
2013-02-18 04:20:00,28.4,13.0,30.11,ESE,120,3.0,11.0,52,0.00,,SKC,0.00,VWS V14.01,2013-02-18 09:20:00,
2013-02-18 04:25:00,28.5,13.1,30.11,South,178,5.0,11.0,52,0.00,,SKC,0.00,VWS V14.01,2013-02-18 09:25:00,
2013-02-18 04:30:00,28.5,13.1,30.11,SE,125,7.0,11.0,52,0.00,,SKC,0.00,VWS V14.01,2013-02-18 09:30:00,
2013-02-18 04:35:00,28.7,13.3,30.11,SSE,156,5.0,9.0,52,0.00,,SKC,0.00,VWS V14.01,2013-02-18 09:35:00,
2013-02-18 04:40:00,28.8,13.4,30.11,ESE,110,1.0,13.0,52,0.00,,SKC,0.00,VWS V14.01,2013-02-18 09:40:00,
2013-02-18 04:45:00,28.8,13.4,30.11,SE,127,2.0,13.0,52,0.00,,SKC,0.00,VWS V14.01,2013-02-18 09:45:00,
2013-02-18 04:50:00,29.0,13.6,30.10,SE,132,3.0,13.0,52,0.00,,SKC,0.00,VWS V14.01,2013-02-18 09:50:00,
2013-02-18 04:55:00,29.0,14.0,30.10,East,101,6.0,13.0,53,0.00,,SKC,0.00,VWS V14.01,2013-02-18 09:55:00,
2013-02-18 05:00:00,29.0,14.0,30.10,SE,146,1.0,13.0,53,0.00,,SKC,0.00,VWS V14.01,2013-02-18 10:00:00,
2013-02-18 05:05:00,29.0,14.0,30.10,South,172,1.0,7.0,53,0.00,,SKC,0.00,VWS V14.01,2013-02-18 10:05:00,
2013-02-18 05:10:00,29.0,14.0,30.10,ESE,118,1.0,7.0,53,0.00,,SKC,0.00,VWS V14.01,2013-02-18 10:10:00,
2013-02-18 05:15:00,29.0,14.0,30.10,SSE,155,2.0,11.0,53,0.00,,SKC,0.00,VWS V14.01,2013-02-18 10:15:00,
2013-02-18 05:20:00,29.0,14.0,30.10,SE,131,6.0,16.0,53,0.00,,SKC,0.00,VWS V14.01,2013-02-18 10:20:00,
2013-02-18 05:25:00,29.1,14.1,30.10,SE,146,0.0,16.0,53,0.00,,SKC,0.00,VWS V14.01,2013-02-18 10:25:00,
2013-02-18 05:30:00,29.3,14.3,30.10,SSW,198,3.0,16.0,53,0.00,,SKC,0.00,VWS V14.01,2013-02-18 10:30:00,
2013-02-18 05:35:00,29.4,14.4,30.08,SE,129,4.0,6.0,53,0.00,,SKC,0.00,VWS V14.01,2013-02-18 10:35:00,
2013-02-18 05:40:00,29.5,14.5,30.08,SE,131,4.0,11.0,53,0.00,,SKC,0.00,VWS V14.01,2013-02-18 10:40:00,
2013-02-18 05:45:00,29.7,14.2,30.08,SE,124,5.0,13.0,52,0.00,,SKC,0.00,VWS V14.01,2013-02-18 10:45:00,
2013-02-18 05:50:00,29.8,14.3,30.08,South,171,0.0,13.0,52,0.00,,SKC,0.00,VWS V14.01,2013-02-18 10:50:00,
2013-02-18 05:55:00,29.8,14.3,30.08,SSE,150,3.0,14.0,52,0.00,,SKC,0.00,VWS V14.01,2013-02-18 10:55:00,
2013-02-18 06:00:00,30.0,14.5,30.08,SE,139,7.0,14.0,52,0.00,,SKC,0.00,VWS V14.01,2013-02-18 11:00:00,
2013-02-18 06:06:00,30.1,14.6,30.08,SE,133,13.0,13.0,52,0.00,,SKC,0.00,VWS V14.01,2013-02-18 11:06:00,
2013-02-18 06:11:00,30.1,14.6,30.08,SE,128,9.0,14.0,52,0.00,,SKC,0.00,VWS V14.01,2013-02-18 11:11:00,
2013-02-18 06:16:00,30.1,14.6,30.08,East,98,9.0,14.0,52,0.00,,SKC,0.00,VWS V14.01,2013-02-18 11:16:00,
2013-02-18 06:21:00,30.3,14.8,30.07,South,180,5.0,14.0,52,0.00,,SKC,0.00,VWS V14.01,2013-02-18 11:21:00,
2013-02-18 06:26:00,30.3,14.8,30.07,ESE,115,3.0,14.0,52,0.00,,SKC,0.00,VWS V14.01,2013-02-18 11:26:00,
2013-02-18 06:31:00,30.3,14.8,30.07,ESE,115,4.0,14.0,52,0.00,,SKC,0.00,VWS V14.01,2013-02-18 11:31:00,
2013-02-18 06:36:00,30.4,14.9,30.07,SE,131,1.0,13.0,52,0.00,,SKC,0.00,VWS V14.01,2013-02-18 11:36:00,
2013-02-18 06:41:00,30.4,15.3,30.07,SE,144,12.0,13.0,53,0.00,,SKC,0.00,VWS V14.01,2013-02-18 11:41:00,
2013-02-18 06:46:00,30.4,15.3,30.06,SSW,194,10.0,16.0,53,0.00,,SKC,0.00,VWS V14.01,2013-02-18 11:46:00,
2013-02-18 06:51:00,30.4,15.3,30.06,SE,129,6.0,16.0,53,0.00,,SKC,0.00,VWS V14.01,2013-02-18 11:51:00,
2013-02-18 06:56:00,30.4,15.3,30.06,ESE,120,5.0,16.0,53,0.00,,SKC,0.00,VWS V14.01,2013-02-18 11:56:00,
2013-02-18 07:01:00,30.4,15.3,30.05,SE,134,3.0,16.0,53,0.00,,SKC,0.00,VWS V14.01,2013-02-18 12:01:00,
2013-02-18 07:07:00,30.6,15.9,30.05,SE,143,4.0,12.0,54,0.00,,SKC,0.00,VWS V14.01,2013-02-18 12:07:00,
2013-02-18 07:12:00,30.6,15.9,30.05,SSE,163,1.0,12.0,54,0.00,,SKC,0.00,VWS V14.01,2013-02-18 12:12:00,
2013-02-18 07:17:00,30.6,15.9,30.04,South,184,5.0,13.0,54,0.00,,SKC,0.00,VWS V14.01,2013-02-18 12:17:00,
2013-02-18 07:22:00,30.6,15.9,30.04,SSE,150,4.0,13.0,54,0.00,,SKC,0.00,VWS V14.01,2013-02-18 12:22:00,
2013-02-18 07:27:00,30.6,15.9,30.04,SSW,200,3.0,13.0,54,0.00,,SKC,0.00,VWS V14.01,2013-02-18 12:27:00,
2013-02-18 07:32:00,30.6,16.4,30.04,ESE,122,1.0,2.0,55,0.00,,SKC,0.00,VWS V14.01,2013-02-18 12:32:00,
2013-02-18 07:38:00,30.7,16.0,30.04,South,190,8.0,10.0,54,0.00,,SKC,0.00,VWS V14.01,2013-02-18 12:38:00,
2013-02-18 07:43:00,30.9,16.2,30.04,SSE,160,1.0,13.0,54,0.00,,SKC,0.00,VWS V14.01,2013-02-18 12:43:00,
2013-02-18 07:48:00,31.2,16.5,30.03,SSE,160,2.0,13.0,54,0.00,,SKC,0.00,VWS V14.01,2013-02-18 12:48:00,
2013-02-18 07:53:00,31.3,16.6,30.03,East,88,10.0,14.0,54,0.00,,SKC,0.00,VWS V14.01,2013-02-18 12:53:00,
2013-02-18 07:58:00,31.5,16.8,30.03,ESE,118,2.0,14.0,54,0.00,,SKC,0.00,VWS V14.01,2013-02-18 12:58:00,
2013-02-18 08:03:00,31.8,17.1,30.03,SSE,162,1.0,16.0,54,0.00,,SKC,0.00,VWS V14.01,2013-02-18 13:03:00,
2013-02-18 08:08:00,31.9,16.7,30.03,SE,136,6.0,16.0,53,0.00,,SKC,0.00,VWS V14.01,2013-02-18 13:08:00,
2013-02-18 08:13:00,32.1,16.9,30.03,South,190,0.0,16.0,53,0.00,,SKC,0.00,VWS V14.01,2013-02-18 13:13:00,
2013-02-18 08:18:00,32.4,17.2,30.03,SSE,164,7.0,16.0,53,0.00,,SKC,0.00,VWS V14.01,2013-02-18 13:18:00,
2013-02-18 08:23:00,32.7,17.5,30.03,ESE,117,4.0,16.0,53,0.00,,SKC,0.00,VWS V14.01,2013-02-18 13:23:00,
2013-02-18 08:29:00,32.8,17.6,30.03,SSW,203,0.0,16.0,53,0.00,,SKC,0.00,VWS V14.01,2013-02-18 13:29:00,
2013-02-18 08:34:00,32.9,17.7,30.03,SE,133,9.0,11.0,53,0.00,,SKC,0.00,VWS V14.01,2013-02-18 13:34:00,
2013-02-18 08:39:00,33.1,17.8,30.03,South,171,6.0,12.0,53,0.00,,SKC,0.00,VWS V14.01,2013-02-18 13:39:00,
2013-02-18 08:44:00,33.2,17.9,30.03,SE,136,0.0,12.0,53,0.00,,SKC,0.00,VWS V14.01,2013-02-18 13:44:00,
2013-02-18 08:49:00,33.5,17.8,30.02,SSE,147,9.0,12.0,52,0.00,,SKC,0.00,VWS V14.01,2013-02-18 13:49:00,
2013-02-18 08:54:00,34.0,18.2,30.02,South,169,2.0,12.0,52,0.00,,SKC,0.00,VWS V14.01,2013-02-18 13:54:00,
2013-02-18 08:59:00,34.3,18.5,30.02,SE,124,5.0,15.0,52,0.00,,SKC,0.00,VWS V14.01,2013-02-18 13:59:00,
2013-02-18 09:04:00,34.6,18.8,30.02,South,170,3.0,16.0,52,0.00,,SKC,0.00,VWS V14.01,2013-02-18 14:04:00,
2013-02-18 09:09:00,35.0,18.7,30.02,SSE,160,10.0,16.0,51,0.00,,SKC,0.00,VWS V14.01,2013-02-18 14:09:00,
2013-02-18 09:15:00,35.3,19.0,30.02,South,186,5.0,16.0,51,0.00,,SKC,0.00,VWS V14.01,2013-02-18 14:15:00,
2013-02-18 09:20:00,35.8,19.5,30.01,ESE,120,9.0,19.0,51,0.00,,SKC,0.00,VWS V14.01,2013-02-18 14:20:00,
2013-02-18 09:25:00,36.0,19.6,30.01,SSW,199,2.0,19.0,51,0.00,,SKC,0.00,VWS V14.01,2013-02-18 14:25:00,
2013-02-18 09:30:00,36.5,20.1,30.01,SE,143,16.0,19.0,51,0.00,,SKC,0.00,VWS V14.01,2013-02-18 14:30:00,
2013-02-18 09:35:00,36.8,20.4,30.01,South,176,5.0,13.0,51,0.00,,SKC,0.00,VWS V14.01,2013-02-18 14:35:00,
2013-02-18 09:40:00,37.0,20.6,30.01,SE,131,7.0,13.0,51,0.00,,SKC,0.00,VWS V14.01,2013-02-18 14:40:00,
2013-02-18 09:45:00,37.3,20.9,30.01,ESE,120,1.0,13.0,51,0.00,,SKC,0.00,VWS V14.01,2013-02-18 14:45:00,
2013-02-18 09:50:00,37.8,21.3,30.00,SSE,165,4.0,21.0,51,0.00,,SKC,0.00,VWS V14.01,2013-02-18 14:50:00,
2013-02-18 09:55:00,38.2,21.7,30.00,SE,131,1.0,21.0,51,0.00,,SKC,0.00,VWS V14.01,2013-02-18 14:55:00,
2013-02-18 10:00:00,38.5,22.0,30.00,South,173,6.0,21.0,51,0.00,,SKC,0.00,VWS V14.01,2013-02-18 15:00:00,
2013-02-18 10:05:00,38.8,22.2,30.00,SSE,155,3.0,14.0,51,0.00,,SKC,0.00,VWS V14.01,2013-02-18 15:05:00,
2013-02-18 10:10:00,39.1,22.5,30.00,SE,126,3.0,14.0,51,0.00,,SKC,0.00,VWS V14.01,2013-02-18 15:10:00,
2013-02-18 10:16:00,39.3,22.7,30.00,SSE,160,13.0,14.0,51,0.00,,SKC,0.00,VWS V14.01,2013-02-18 15:16:00,
2013-02-18 10:21:00,39.3,22.7,30.00,South,175,3.0,18.0,51,0.00,,SKC,0.00,VWS V14.01,2013-02-18 15:21:00,
2013-02-18 10:26:00,39.3,22.7,30.00,SSE,160,7.0,18.0,51,0.00,,SKC,0.00,VWS V14.01,2013-02-18 15:26:00,
2013-02-18 10:31:00,39.6,23.4,30.00,South,182,3.0,18.0,52,0.00,,SKC,0.00,VWS V14.01,2013-02-18 15:31:00,
2013-02-18 10:36:00,40.1,23.9,29.98,SSE,152,4.0,15.0,52,0.00,,SKC,0.00,VWS V14.01,2013-02-18 15:36:00,
2013-02-18 10:41:00,40.9,24.2,29.98,SSW,205,6.0,15.0,51,0.00,,SKC,0.00,VWS V14.01,2013-02-18 15:41:00,
2013-02-18 10:46:00,40.8,24.1,29.98,SSE,156,4.0,20.0,51,0.00,,SKC,0.00,VWS V14.01,2013-02-18 15:46:00,
2013-02-18 10:51:00,40.9,24.6,29.98,SSW,203,9.0,20.0,52,0.00,,SKC,0.00,VWS V14.01,2013-02-18 15:51:00,
2013-02-18 10:56:00,41.8,25.0,29.98,South,191,4.0,20.0,51,0.00,,SKC,0.00,VWS V14.01,2013-02-18 15:56:00,
2013-02-18 11:02:00,42.5,25.7,29.97,ESE,109,1.0,20.0,51,0.00,,SKC,0.00,VWS V14.01,2013-02-18 16:02:00,
2013-02-18 11:07:00,43.1,25.7,29.97,SE,139,5.0,12.0,50,0.00,,SKC,0.00,VWS V14.01,2013-02-18 16:07:00,
2013-02-18 11:12:00,43.2,25.8,29.97,SE,138,9.0,17.0,50,0.00,,SKC,0.00,VWS V14.01,2013-02-18 16:12:00,
2013-02-18 11:17:00,43.8,26.9,29.96,SW,232,5.0,17.0,51,0.00,,SKC,0.00,VWS V14.01,2013-02-18 16:17:00,
2013-02-18 11:22:00,44.1,27.1,29.96,South,172,2.0,17.0,51,0.00,,SKC,0.00,VWS V14.01,2013-02-18 16:22:00,
2013-02-18 11:27:00,44.9,27.9,29.96,South,169,4.0,17.0,51,0.00,,SKC,0.00,VWS V14.01,2013-02-18 16:27:00,
2013-02-18 11:32:00,45.4,28.8,29.96,SSW,198,7.0,17.0,52,0.00,,SKC,0.00,VWS V14.01,2013-02-18 16:32:00,
2013-02-18 11:37:00,46.0,29.4,29.96,SW,219,11.0,16.0,52,0.00,,SKC,0.00,VWS V14.01,2013-02-18 16:37:00,
2013-02-18 11:42:00,46.5,29.8,29.96,SSE,149,0.0,16.0,52,0.00,,SKC,0.00,VWS V14.01,2013-02-18 16:42:00,
2013-02-18 11:47:00,47.1,29.9,29.94,SSE,161,2.0,18.0,51,0.00,,SKC,0.00,VWS V14.01,2013-02-18 16:47:00,
2013-02-18 11:52:00,47.4,30.7,29.94,SSW,196,1.0,18.0,52,0.00,,SKC,0.00,VWS V14.01,2013-02-18 16:52:00,
2013-02-18 11:57:00,48.2,30.9,29.94,SSW,192,1.0,18.0,51,0.00,,SKC,0.00,VWS V14.01,2013-02-18 16:57:00,
2013-02-18 12:02:00,48.3,31.0,29.94,SSW,212,3.0,5.0,51,0.00,,SKC,0.00,VWS V14.01,2013-02-18 17:02:00,
2013-02-18 12:07:00,48.6,31.3,29.94,South,191,10.0,17.0,51,0.00,,SKC,0.00,VWS V14.01,2013-02-18 17:07:00,
2013-02-18 12:12:00,49.1,32.2,29.94,SW,221,4.0,17.0,52,0.00,,SKC,0.00,VWS V14.01,2013-02-18 17:12:00,
2013-02-18 12:17:00,50.1,32.7,29.92,ESE,122,5.0,17.0,51,0.00,,SKC,0.00,VWS V14.01,2013-02-18 17:17:00,
2013-02-18 12:22:00,50.4,33.0,29.92,SSW,205,5.0,17.0,51,0.00,,SKC,0.00,VWS V14.01,2013-02-18 17:22:00,
2013-02-18 12:28:00,50.8,33.3,29.92,SSW,203,9.0,17.0,51,0.00,,SKC,0.00,VWS V14.01,2013-02-18 17:28:00,
2013-02-18 12:33:00,51.3,33.8,29.92,SW,231,7.0,15.0,51,0.00,,SKC,0.00,VWS V14.01,2013-02-18 17:33:00,
2013-02-18 12:38:00,51.3,33.8,29.92,SSW,212,6.0,15.0,51,0.00,,SKC,0.00,VWS V14.01,2013-02-18 17:38:00,
2013-02-18 12:43:00,51.3,33.8,29.92,SSE,150,14.0,15.0,51,0.00,,SKC,0.00,VWS V14.01,2013-02-18 17:43:00,
2013-02-18 12:48:00,51.4,34.4,29.91,SSW,207,15.0,18.0,52,0.00,,SKC,0.00,VWS V14.01,2013-02-18 17:48:00,
2013-02-18 12:53:00,51.9,34.8,29.91,South,186,1.0,18.0,52,0.00,,SKC,0.00,VWS V14.01,2013-02-18 17:53:00,
2013-02-18 12:58:00,52.3,34.7,29.91,SE,134,20.0,20.0,51,0.00,,SKC,0.00,VWS V14.01,2013-02-18 17:58:00,
2013-02-18 13:03:00,51.9,34.8,29.90,South,173,2.0,14.0,52,0.00,,SKC,0.00,VWS V14.01,2013-02-18 18:03:00,
2013-02-18 13:08:00,51.7,34.7,29.90,South,177,2.0,16.0,52,0.00,,SKC,0.00,VWS V14.01,2013-02-18 18:08:00,
2013-02-18 13:13:00,51.7,34.7,29.90,SE,134,5.0,18.0,52,0.00,,SKC,0.00,VWS V14.01,2013-02-18 18:13:00,
2013-02-18 13:18:00,51.7,35.1,29.90,SE,140,16.0,23.0,53,0.00,,SKC,0.00,VWS V14.01,2013-02-18 18:18:00,
2013-02-18 13:23:00,52.2,35.1,29.90,SSE,155,6.0,23.0,52,0.00,,SKC,0.00,VWS V14.01,2013-02-18 18:23:00,
2013-02-18 13:28:00,52.2,35.1,29.90,SE,138,6.0,23.0,52,0.00,,SKC,0.00,VWS V14.01,2013-02-18 18:28:00,
2013-02-18 13:33:00,52.5,35.4,29.89,SE,142,1.0,9.0,52,0.00,,SKC,0.00,VWS V14.01,2013-02-18 18:33:00,
2013-02-18 13:38:00,53.1,36.0,29.89,ESE,122,2.0,11.0,52,0.00,,SKC,0.00,VWS V14.01,2013-02-18 18:38:00,
2013-02-18 13:44:00,53.9,36.7,29.89,SE,142,9.0,12.0,52,0.00,,SKC,0.00,VWS V14.01,2013-02-18 18:44:00,
2013-02-18 13:49:00,54.5,36.8,29.88,SE,144,5.0,12.0,51,0.00,,SKC,0.00,VWS V14.01,2013-02-18 18:49:00,
2013-02-18 13:54:00,55.0,36.7,29.88,SSW,192,7.0,16.0,50,0.00,,SKC,0.00,VWS V14.01,2013-02-18 18:54:00,
2013-02-18 13:59:00,55.1,36.8,29.88,SSW,192,9.0,16.0,50,0.00,,SKC,0.00,VWS V14.01,2013-02-18 18:59:00,
2013-02-18 14:04:00,55.4,37.1,29.86,SE,127,1.0,9.0,50,0.00,,SKC,0.00,VWS V14.01,2013-02-18 19:04:00,
2013-02-18 14:09:00,55.7,36.8,29.86,South,169,4.0,15.0,49,0.00,,SKC,0.00,VWS V14.01,2013-02-18 19:09:00,
2013-02-18 14:14:00,56.0,37.6,29.86,SSE,156,0.0,15.0,50,0.00,,SKC,0.00,VWS V14.01,2013-02-18 19:14:00,
2013-02-18 14:19:00,56.6,37.7,29.85,SSE,158,4.0,15.0,49,0.00,,SKC,0.00,VWS V14.01,2013-02-18 19:19:00,
2013-02-18 14:24:00,56.5,38.1,29.85,SW,215,3.0,23.0,50,0.00,,SKC,0.00,VWS V14.01,2013-02-18 19:24:00,
2013-02-18 14:29:00,56.7,37.8,29.85,South,179,5.0,23.0,49,0.00,,SKC,0.00,VWS V14.01,2013-02-18 19:29:00,
2013-02-18 14:34:00,56.9,38.0,29.83,SE,136,0.0,6.0,49,0.00,,SKC,0.00,VWS V14.01,2013-02-18 19:34:00,
2013-02-18 14:39:00,57.3,37.8,29.83,SE,146,3.0,19.0,48,0.00,,SKC,0.00,VWS V14.01,2013-02-18 19:39:00,
2013-02-18 14:44:00,58.1,38.0,29.83,SSE,165,1.0,19.0,47,0.00,,SKC,0.00,VWS V14.01,2013-02-18 19:44:00,
2013-02-18 14:49:00,58.3,38.7,29.82,SE,137,7.0,19.0,48,0.00,,SKC,0.00,VWS V14.01,2013-02-18 19:49:00,
2013-02-18 14:55:00,58.7,38.0,29.82,South,187,5.0,19.0,46,0.00,,SKC,0.00,VWS V14.01,2013-02-18 19:55:00,
2013-02-18 15:00:00,59.0,38.8,29.82,SSE,158,2.0,19.0,47,0.00,,SKC,0.00,VWS V14.01,2013-02-18 20:00:00,
2013-02-18 15:05:00,59.3,38.0,29.81,SSW,197,4.0,17.0,45,0.00,,SKC,0.00,VWS V14.01,2013-02-18 20:05:00,
2013-02-18 15:10:00,58.9,38.2,29.81,South,181,3.0,17.0,46,0.00,,SKC,0.00,VWS V14.01,2013-02-18 20:10:00,
2013-02-18 15:15:00,58.7,38.0,29.81,SSE,166,6.0,17.0,46,0.00,,SKC,0.00,VWS V14.01,2013-02-18 20:15:00,
2013-02-18 15:20:00,58.1,38.0,29.81,SSW,212,5.0,29.0,47,0.00,,SKC,0.00,VWS V14.01,2013-02-18 20:20:00,
2013-02-18 15:25:00,58.1,38.0,29.81,ESE,106,7.0,29.0,47,0.00,,SKC,0.00,VWS V14.01,2013-02-18 20:25:00,
2013-02-18 15:30:00,58.4,37.7,29.81,South,179,2.0,29.0,46,0.00,,SKC,0.00,VWS V14.01,2013-02-18 20:30:00,
2013-02-18 15:35:00,58.9,37.6,29.80,South,169,6.0,22.0,45,0.00,,SKC,0.00,VWS V14.01,2013-02-18 20:35:00,
2013-02-18 15:40:00,58.6,37.9,29.80,SSE,157,4.0,22.0,46,0.00,,SKC,0.00,VWS V14.01,2013-02-18 20:40:00,
2013-02-18 15:45:00,58.3,38.2,29.80,SW,231,16.0,22.0,47,0.00,,SKC,0.00,VWS V14.01,2013-02-18 20:45:00,
2013-02-18 15:50:00,58.0,37.9,29.80,South,178,2.0,22.0,47,0.00,,SKC,0.00,VWS V14.01,2013-02-18 20:50:00,
2013-02-18 15:55:00,57.8,36.6,29.80,South,173,2.0,22.0,45,0.00,,SKC,0.00,VWS V14.01,2013-02-18 20:55:00,
2013-02-18 16:00:00,57.8,36.6,29.80,South,176,1.0,22.0,45,0.00,,SKC,0.00,VWS V14.01,2013-02-18 21:00:00,
2013-02-18 16:05:00,57.6,35.3,29.78,ESE,111,3.0,16.0,43,0.00,,SKC,0.00,VWS V14.01,2013-02-18 21:05:00,
2013-02-18 16:11:00,57.6,34.7,29.78,SSE,156,15.0,20.0,42,0.00,,SKC,0.00,VWS V14.01,2013-02-18 21:11:00,
2013-02-18 16:16:00,57.6,34.1,29.78,South,179,3.0,28.0,41,0.00,,SKC,0.00,VWS V14.01,2013-02-18 21:16:00,
2013-02-18 16:21:00,57.6,34.1,29.77,South,179,1.0,28.0,41,0.00,,SKC,0.00,VWS V14.01,2013-02-18 21:21:00,
2013-02-18 16:26:00,58.0,33.8,29.77,South,177,14.0,28.0,40,0.00,,SKC,0.00,VWS V14.01,2013-02-18 21:26:00,
2013-02-18 16:31:00,58.0,33.8,29.77,WSW,240,3.0,28.0,40,0.00,,SKC,0.00,VWS V14.01,2013-02-18 21:31:00,
2013-02-18 16:36:00,57.8,33.7,29.77,South,174,6.0,14.0,40,0.00,,SKC,0.00,VWS V14.01,2013-02-18 21:36:00,
2013-02-18 16:41:00,57.8,32.4,29.77,WNW,300,2.0,26.0,38,0.00,,SKC,0.00,VWS V14.01,2013-02-18 21:41:00,
2013-02-18 16:46:00,57.6,32.8,29.78,WSW,243,6.0,26.0,39,0.00,,SKC,0.00,VWS V14.01,2013-02-18 21:46:00,
2013-02-18 16:51:00,57.5,31.5,29.78,SSW,210,6.0,31.0,37,0.00,,SKC,0.00,VWS V14.01,2013-02-18 21:51:00,
2013-02-18 16:56:00,57.3,31.3,29.78,SSE,163,5.0,31.0,37,0.00,,SKC,0.00,VWS V14.01,2013-02-18 21:56:00,
2013-02-18 17:02:00,57.2,31.2,29.77,South,186,11.0,31.0,37,0.00,,SKC,0.00,VWS V14.01,2013-02-18 22:02:00,
2013-02-18 17:07:00,57.2,31.2,29.77,South,188,2.0,15.0,37,0.00,,SKC,0.00,VWS V14.01,2013-02-18 22:07:00,
2013-02-18 17:12:00,57.0,31.0,29.77,South,175,5.0,19.0,37,0.00,,SKC,0.00,VWS V14.01,2013-02-18 22:12:00,
2013-02-18 17:17:00,57.2,30.5,29.76,SE,131,9.0,26.0,36,0.00,,SKC,0.00,VWS V14.01,2013-02-18 22:17:00,
2013-02-18 17:22:00,57.2,30.5,29.76,SSE,162,3.0,26.0,36,0.00,,SKC,0.00,VWS V14.01,2013-02-18 22:22:00,
2013-02-18 17:27:00,57.0,30.3,29.76,South,181,2.0,26.0,36,0.00,,SKC,0.00,VWS V14.01,2013-02-18 22:27:00,
2013-02-18 17:32:00,56.9,30.2,29.75,SSW,210,8.0,26.0,36,0.00,,SKC,0.00,VWS V14.01,2013-02-18 22:32:00,
2013-02-18 17:37:00,56.7,30.7,29.75,South,189,6.0,18.0,37,0.00,,SKC,0.00,VWS V14.01,2013-02-18 22:37:00,
2013-02-18 17:42:00,56.6,30.6,29.75,South,180,4.0,18.0,37,0.00,,SKC,0.00,VWS V14.01,2013-02-18 22:42:00,
2013-02-18 17:47:00,56.6,30.6,29.75,South,179,7.0,18.0,37,0.00,,SKC,0.00,VWS V14.01,2013-02-18 22:47:00,
2013-02-18 17:52:00,56.6,30.6,29.75,South,187,8.0,27.0,37,0.00,,SKC,0.00,VWS V14.01,2013-02-18 22:52:00,
2013-02-18 17:57:00,56.5,30.6,29.75,South,188,15.0,27.0,37,0.00,,SKC,0.00,VWS V14.01,2013-02-18 22:57:00,
2013-02-18 18:02:00,56.3,31.7,29.77,South,191,9.0,9.0,39,0.00,,SKC,0.00,VWS V14.01,2013-02-18 23:02:00,
2013-02-18 18:07:00,56.2,31.6,29.77,SSW,210,6.0,24.0,39,0.00,,SKC,0.00,VWS V14.01,2013-02-18 23:07:00,
2013-02-18 18:12:00,55.7,33.0,29.77,SSW,193,4.0,26.0,42,0.00,,SKC,0.00,VWS V14.01,2013-02-18 23:12:00,
2013-02-18 18:17:00,55.1,33.6,29.77,SSE,167,13.0,26.0,44,0.00,,SKC,0.00,VWS V14.01,2013-02-18 23:17:00,
2013-02-18 18:23:00,54.7,34.3,29.77,SSW,210,15.0,26.0,46,0.00,,SKC,0.00,VWS V14.01,2013-02-18 23:23:00,
2013-02-18 18:28:00,54.1,34.9,29.77,South,183,3.0,26.0,48,0.00,,SKC,0.00,VWS V14.01,2013-02-18 23:28:00,
2013-02-18 18:33:00,53.6,34.4,29.77,SSE,153,11.0,11.0,48,0.00,,SKC,0.00,VWS V14.01,2013-02-18 23:33:00,
2013-02-18 18:38:00,53.5,34.8,29.77,SW,216,9.0,33.0,49,0.00,,SKC,0.00,VWS V14.01,2013-02-18 23:38:00,
2013-02-18 18:43:00,53.3,36.1,29.77,SW,214,15.0,33.0,52,0.00,,SKC,0.00,VWS V14.01,2013-02-18 23:43:00,
2013-02-18 18:48:00,51.9,38.0,29.79,South,175,6.0,33.0,59,0.01,,SKC,0.01,VWS V14.01,2013-02-18 23:48:00,
2013-02-18 18:53:00,50.7,38.2,29.79,SSW,201,3.0,33.0,62,0.01,,SKC,0.01,VWS V14.01,2013-02-18 23:53:00,
2013-02-18 18:58:00,49.8,38.5,29.79,South,181,4.0,33.0,65,0.01,,SKC,0.01,VWS V14.01,2013-02-18 23:58:00,
2013-02-18 19:03:00,49.5,38.6,29.77,SSE,153,1.0,28.0,66,0.01,,SKC,0.01,VWS V14.01,2013-02-19 00:03:00,
2013-02-18 19:08:00,49.6,37.5,29.77,South,176,14.0,28.0,63,0.01,,SKC,0.01,VWS V14.01,2013-02-19 00:08:00,
2013-02-18 19:13:00,49.8,37.7,29.77,South,187,7.0,28.0,63,0.01,,SKC,0.01,VWS V14.01,2013-02-19 00:13:00,
2013-02-18 19:18:00,49.9,37.4,29.75,East,98,15.0,28.0,62,0.01,,SKC,0.01,VWS V14.01,2013-02-19 00:18:00,
2013-02-18 19:23:00,49.9,37.4,29.75,SSW,197,2.0,28.0,62,0.01,,SKC,0.01,VWS V14.01,2013-02-19 00:23:00,
2013-02-18 19:28:00,50.1,37.6,29.75,SSW,195,7.0,28.0,62,0.01,,SKC,0.01,VWS V14.01,2013-02-19 00:28:00,
2013-02-18 19:33:00,50.1,37.6,29.75,SE,139,3.0,10.0,62,0.01,,SKC,0.01,VWS V14.01,2013-02-19 00:33:00,
2013-02-18 19:38:00,49.9,37.4,29.75,South,181,17.0,21.0,62,0.01,,SKC,0.01,VWS V14.01,2013-02-19 00:38:00,
2013-02-18 19:44:00,49.8,37.7,29.75,South,181,1.0,21.0,63,0.01,,SKC,0.01,VWS V14.01,2013-02-19 00:44:00,
2013-02-18 19:49:00,49.5,37.8,29.74,South,188,4.0,21.0,64,0.01,,SKC,0.01,VWS V14.01,2013-02-19 00:49:00,
2013-02-18 19:54:00,49.2,38.0,29.74,South,174,2.0,21.0,65,0.01,,SKC,0.01,VWS V14.01,2013-02-19 00:54:00,
2013-02-18 19:59:00,49.1,37.9,29.74,SSW,193,6.0,21.0,65,0.01,,SKC,0.01,VWS V14.01,2013-02-19 00:59:00,
2013-02-18 20:04:00,49.1,37.9,29.72,SSE,163,5.0,11.0,65,0.00,,SKC,0.01,VWS V14.01,2013-02-19 01:04:00,
2013-02-18 20:09:00,49.1,37.9,29.72,SE,146,2.0,12.0,65,0.00,,SKC,0.01,VWS V14.01,2013-02-19 01:09:00,
2013-02-18 20:14:00,49.1,37.9,29.72,SSE,148,3.0,12.0,65,0.00,,SKC,0.01,VWS V14.01,2013-02-19 01:14:00,
2013-02-18 20:19:00,49.1,37.9,29.71,SSE,165,3.0,12.0,65,0.00,,SKC,0.01,VWS V14.01,2013-02-19 01:19:00,
2013-02-18 20:24:00,49.1,37.5,29.71,SSW,192,2.0,12.0,64,0.00,,SKC,0.01,VWS V14.01,2013-02-19 01:24:00,
2013-02-18 20:29:00,49.2,37.6,29.71,SSE,147,1.0,12.0,64,0.00,,SKC,0.01,VWS V14.01,2013-02-19 01:29:00,
2013-02-18 20:34:00,49.4,37.3,29.71,South,175,6.0,19.0,63,0.00,,SKC,0.01,VWS V14.01,2013-02-19 01:34:00,
2013-02-18 20:39:00,49.4,37.8,29.71,South,191,3.0,19.0,64,0.00,,SKC,0.01,VWS V14.01,2013-02-19 01:39:00,
2013-02-18 20:44:00,49.5,37.8,29.71,SSW,200,8.0,25.0,64,0.00,,SKC,0.01,VWS V14.01,2013-02-19 01:44:00,
2013-02-18 20:49:00,49.4,38.1,29.70,SSE,153,2.0,25.0,65,0.00,,SKC,0.01,VWS V14.01,2013-02-19 01:49:00,
2013-02-18 20:54:00,49.2,38.0,29.70,SSE,150,12.0,25.0,65,0.00,,SKC,0.01,VWS V14.01,2013-02-19 01:54:00,
2013-02-18 20:59:00,49.2,38.0,29.70,South,183,7.0,25.0,65,0.00,,SKC,0.01,VWS V14.01,2013-02-19 01:59:00,
2013-02-18 21:05:00,49.2,38.3,29.70,SSE,150,15.0,15.0,66,0.00,,SKC,0.01,VWS V14.01,2013-02-19 02:05:00,
2013-02-18 21:10:00,49.1,38.2,29.70,SSE,162,0.0,15.0,66,0.00,,SKC,0.01,VWS V14.01,2013-02-19 02:10:00,
2013-02-18 21:15:00,49.1,38.6,29.70,South,181,12.0,24.0,67,0.01,,SKC,0.02,VWS V14.01,2013-02-19 02:15:00,
2013-02-18 21:20:00,48.5,39.5,29.69,SE,141,10.0,24.0,71,0.02,,SKC,0.03,VWS V14.01,2013-02-19 02:20:00,
2013-02-18 21:25:00,47.7,39.8,29.69,South,187,13.0,26.0,74,0.03,,SKC,0.04,VWS V14.01,2013-02-19 02:25:00,
2013-02-18 21:30:00,47.3,40.1,29.69,South,179,5.0,26.0,76,0.03,,SKC,0.04,VWS V14.01,2013-02-19 02:30:00,
2013-02-18 21:35:00,46.8,40.3,29.69,SE,130,4.0,15.0,78,0.04,,SKC,0.05,VWS V14.01,2013-02-19 02:35:00,
2013-02-18 21:40:00,46.5,40.3,29.69,South,176,2.0,19.0,79,0.04,,SKC,0.05,VWS V14.01,2013-02-19 02:40:00,
2013-02-18 21:45:00,46.2,40.7,29.69,SE,144,2.0,19.0,81,0.05,,SKC,0.06,VWS V14.01,2013-02-19 02:45:00,
2013-02-18 21:51:00,46.1,40.9,29.69,SE,134,4.0,24.0,82,0.05,,SKC,0.06,VWS V14.01,2013-02-19 02:51:00,
2013-02-18 21:56:00,46.0,40.8,29.69,South,174,5.0,24.0,82,0.05,,SKC,0.06,VWS V14.01,2013-02-19 02:56:00,
2013-02-18 22:01:00,45.8,40.6,29.68,SE,129,5.0,24.0,82,0.05,,SKC,0.06,VWS V14.01,2013-02-19 03:01:00,
2013-02-18 22:06:00,45.8,40.6,29.68,SSE,158,2.0,20.0,82,0.05,,SKC,0.06,VWS V14.01,2013-02-19 03:06:00,
2013-02-18 22:12:00,45.7,40.8,29.68,SSW,199,15.0,20.0,83,0.06,,SKC,0.07,VWS V14.01,2013-02-19 03:12:00,
2013-02-18 22:17:00,45.7,41.2,29.67,SSE,162,2.0,23.0,84,0.06,,SKC,0.07,VWS V14.01,2013-02-19 03:17:00,
2013-02-18 22:22:00,45.5,41.0,29.67,ESE,120,1.0,29.0,84,0.07,,SKC,0.08,VWS V14.01,2013-02-19 03:22:00,
2013-02-18 22:27:00,45.4,41.2,29.67,SSW,211,7.0,29.0,85,0.09,,SKC,0.10,VWS V14.01,2013-02-19 03:27:00,
2013-02-18 22:33:00,45.4,41.5,29.65,SE,129,13.0,14.0,86,0.06,,SKC,0.10,VWS V14.01,2013-02-19 03:33:00,
2013-02-18 22:38:00,45.2,41.3,29.65,South,179,7.0,15.0,86,0.07,,SKC,0.11,VWS V14.01,2013-02-19 03:38:00,
2013-02-18 22:43:00,45.2,41.3,29.65,SSE,147,5.0,25.0,86,0.07,,SKC,0.11,VWS V14.01,2013-02-19 03:43:00,
2013-02-18 22:48:00,45.2,41.3,29.65,South,181,8.0,25.0,86,0.07,,SKC,0.11,VWS V14.01,2013-02-19 03:48:00,
2013-02-18 22:53:00,45.2,41.6,29.65,South,181,5.0,25.0,87,0.08,,SKC,0.12,VWS V14.01,2013-02-19 03:53:00,
2013-02-18 22:58:00,45.2,41.6,29.65,ESE,115,12.0,29.0,87,0.08,,SKC,0.12,VWS V14.01,2013-02-19 03:58:00,
2013-02-18 23:03:00,45.2,41.6,29.64,SSE,153,2.0,10.0,87,0.06,,SKC,0.12,VWS V14.01,2013-02-19 04:03:00,
2013-02-18 23:08:00,45.2,41.6,29.64,ESE,115,1.0,17.0,87,0.06,,SKC,0.12,VWS V14.01,2013-02-19 04:08:00,
2013-02-18 23:13:00,45.2,41.6,29.64,SSE,153,6.0,23.0,87,0.06,,SKC,0.12,VWS V14.01,2013-02-19 04:13:00,
2013-02-18 23:18:00,45.1,41.5,29.63,SSE,167,11.0,23.0,87,0.07,,SKC,0.13,VWS V14.01,2013-02-19 04:18:00,
2013-02-18 23:24:00,45.2,41.6,29.63,SSE,155,19.0,23.0,87,0.07,,SKC,0.13,VWS V14.01,2013-02-19 04:24:00,
2013-02-18 23:29:00,45.2,41.3,29.63,South,172,6.0,28.0,86,0.07,,SKC,0.13,VWS V14.01,2013-02-19 04:29:00,
2013-02-18 23:34:00,45.4,41.2,29.60,South,169,5.0,13.0,85,0.03,,SKC,0.13,VWS V14.01,2013-02-19 04:34:00,
2013-02-18 23:39:00,45.4,41.2,29.60,SSE,168,15.0,19.0,85,0.03,,SKC,0.13,VWS V14.01,2013-02-19 04:39:00,
2013-02-18 23:44:00,45.2,41.0,29.60,ESE,119,3.0,19.0,85,0.03,,SKC,0.13,VWS V14.01,2013-02-19 04:44:00,
2013-02-18 23:49:00,45.2,41.0,29.60,SE,144,3.0,20.0,85,0.03,,SKC,0.13,VWS V14.01,2013-02-19 04:49:00,
2013-02-18 23:54:00,45.2,41.0,29.60,SSE,148,12.0,20.0,85,0.03,,SKC,0.13,VWS V14.01,2013-02-19 04:54:00,
2013-02-18 23:59:00,45.2,41.3,29.60,South,185,7.0,20.0,86,0.04,,SKC,0.14,VWS V14.01,2013-02-19 04:59:00,